Regional Weather Roundup
Issued by NWS

Home | Current Version | Previous Version | Text Only | Print | Product List | Glossary Off
Versions: 1 2 3 4 5 6 7 8 9 10 11 12 13 14 15 16 17 18 19 20 21 22 23 24 25 26 27 28 29 30 31 32 33 34 35 36 37 38 39 40 41 42 43 44 45 46 47 48 49 50

000
ASUS43 KMKX 200221
RWRWI

WISCONSIN REGIONAL WEATHER ROUNDUP
NATIONAL WEATHER SERVICE MILWAUKEE/SULLIVAN WI
800 PM CST FRI DEC 19 2014

NOTE: "FAIR" INDICATES FEW OR NO CLOUDS BELOW 12,000 FEET WITH NO
SIGNIFICANT WEATHER AND/OR OBSTRUCTIONS TO VISIBILITY.

WIZ001-002-006>008-014>016-023>028-200300-
NORTHWEST WISCONSIN

CITY           SKY/WX    TMP DP  RH WIND       PRES   REMARKS
SUPERIOR ARPT  CLOUDY    27  24  88 CALM      30.21F
ASHLAND        CLOUDY    25  22  88 S3        30.23F
HAYWARD        CLOUDY    25  20  81 S7        30.20F WCI  17
SIREN          CLOUDY    27  22  82 S9        30.20F WCI  18
CUMBERLAND     CLOUDY    27  21  80 S6        30.20F WCI  20
RICE LAKE      CLOUDY    27  22  83 SE6       30.23S WCI  20
CHETEK         CLOUDY    26  22  84 SE6       30.22F WCI  19
LADYSMITH      CLOUDY    26  22  88 SE3       30.23F
EAU CLAIRE     CLOUDY    28  20  71 SE6       30.22F WCI  22
MENOMONIE      CLOUDY    28  22  78 SE6       30.22F WCI  22
NEW RICHMOND   CLOUDY    27  24  87 SE7       30.20F WCI  20
OSCEOLA        CLOUDY    28  24  84 SE7       30.22F WCI  21
$$

WIZ003>005-009-010-017-018-200300-
NORTH CENTRAL WISCONSIN

CITY           SKY/WX    TMP DP  RH WIND       PRES   REMARKS
MANITOWISH WTR CLOUDY    21  19  93 SW7       30.20S WCI  13
ARBOR VITAE    CLOUDY    22  18  86 CALM      30.20F
WOODRUFF       CLOUDY    22  18  86 CALM      30.20F
RHINELANDER    CLOUDY    20  17  88 SW7       30.21F WCI  11
EAGLE RIVER    PTCLDY    18  17  96 CALM      30.20F
LAND O LAKES   CLOUDY    15  13  92 CALM      30.21S
PHILLIPS       CLOUDY    22  21  96 S5        30.21S WCI  15
TOMAHAWK       CLOUDY    21  19  91 CALM      30.22F
MEDFORD        CLOUDY    22  21  93 SE3       30.21F
MERRILL        CLOUDY    23  20  91 CALM      30.22F
$$

WIZ029-030-035-036-043>047-200300-
CENTRAL WISCONSIN

CITY           SKY/WX    TMP DP  RH WIND       PRES   REMARKS
WAUSAU         CLOUDY    24  20  84 SW6       30.22F WCI  17
MOSINEE        CLOUDY    23  21  93 SW5       30.24F WCI  17
MARSHFIELD     CLOUDY    23  20  88 SE3       30.22F
STEVENS POINT  CLOUDY    22  19  88 CALM      30.25F
WAUPACA        PTCLDY    24  19  83 CALM      30.28F
WAUTOMA        CLOUDY    26  22  85 CALM      30.27F
WISC RAPIDS    CLOUDY    23  18  81 SE3       30.26F
CAMP DOUGLAS   CLOUDY    23  23 100 E6        30.24F WCI  15
$$

WIZ011>013-019>022-031-037>040-048>050-200300-
NORTHEAST WISCONSIN

CITY           SKY/WX    TMP DP  RH WIND       PRES   REMARKS
ANTIGO         CLEAR     19  16  91 CALM      30.22S
SHAWANO        CLEAR     25  20  79 CALM      30.28F
OCONTO         CLEAR     17  17  98 CALM      30.29F
STURGEON BAY   CLEAR     19  16  86 CALM      30.29F
GREEN BAY      CLOUDY    25  21  85 CALM      30.29F
MANITOWOC      CLOUDY    30  24  78 CALM      30.29F
APPLETON       CLOUDY    25  18  74 W3        30.28F
CLINTONVILLE   CLEAR     23  18  80 S3        30.27F
OSHKOSH        PTCLDY    26  18  71 CALM      30.26F
$$

WIZ032>034-041-042-053>061-200300-
SOUTHWEST WISCONSIN

CITY           SKY/WX    TMP DP  RH WIND       PRES   REMARKS
LA CROSSE      CLOUDY    30  21  69 SE5       30.24F WCI  25
SPARTA         CLOUDY    29  21  72 CALM      30.25F
VIROQUA        CLOUDY    26  22  84 CALM      30.21F
BOSCOBEL       CLOUDY    29  21  72 CALM      30.25F
PRAIRIE DU CHI CLOUDY    28  22  75 CALM      30.25F
PLATTEVILLE    CLOUDY    28  24  83 CALM      30.24F
$$

WIZ056-057-062-063-064-067-068-200300-
SOUTH CENTRAL WISCONSIN

CITY           SKY/WX    TMP DP  RH WIND       PRES   REMARKS
REEDSBURG      PTCLDY    24  20  87 E3        30.24F
BARABOO/DELLS  PTCLDY    23  19  86 E3        30.24F
LONE ROCK      CLOUDY    31  21  66 E6        30.25F WCI  25
MINERAL POINT  MOCLDY    28  23  80 CALM      30.23F
MADISON        CLOUDY    26  21  81 CALM      30.26F
MIDDLETON      MOCLDY    27  22  82 CALM      30.25F
WATERTOWN      MOCLDY    22  20  91 CALM      30.26F
MONROE         CLOUDY    27  25  93 E3        30.23F
JANESVILLE     CLOUDY    28  23  80 E3        30.26F
$$

WIZ051-052-058>065-066-070>072-200300-
SOUTHEAST WISCONSIN

CITY           SKY/WX    TMP DP  RH WIND       PRES   REMARKS
MILWAUKEE      MOCLDY    29  18  63 CALM      30.27F
WAUKESHA       MOCLDY    23  18  80 W3        30.28F
MILWAUKEE/TIMM CLOUDY    27  19  74 CALM      30.28F
RACINE         CLOUDY    28  20  71 N7        30.29F WCI  21
BURLINGTON     CLOUDY    25  19  78 CALM      30.27F
KENOSHA        CLOUDY    28  20  71 N3        30.27F
FOND DU LAC    PTCLDY    25  18  74 CALM      30.27F
SHEBOYGAN      CLOUDY    28  21  75 CALM      30.27F
WEST BEND      MOCLDY    27  19  74 CALM      30.26F
JUNEAU         PTCLDY    23  18  81 CALM      30.27F
$$

LSZ147-162-200300-
LAKE SUPERIOR

STATION/POSITION TIME  TEMP    WIND        PRES    WAVE
                       AIR SEA DIR/SP/G            HT/PER
                 (UTC) (F)     (DEG/KT/KT) (MB)    (FT/S)
DEVILS ISLAND    0200   27     180/  6/  8 1024.7F
PORT WING        0100   26     110/  1/  2 1023.7S
SAXON HARBOR     0100   25        CALM     1024.0S
$$

LMZ867-665-643>646-200300-
LAKE MICHIGAN

STATION/POSITION TIME  TEMP    WIND        PRES    WAVE
                       AIR SEA DIR/SP/G            HT/PER
                 (UTC) (F)     (DEG/KT/KT) (MB)    (FT/S)
CHAMBERS ISLAND  0100   18        CALM     1026.1F
NORTHPORT PIER   0123   25      CALM  /  3 1026.1S
SISTER BAY       2343             CALM       N/A
ALGOMA LAKESHORE 0114             CALM       N/A
KEWAUNEE LAKESHO 0100   28      CALM  /  3 1025.3S
SHEBOYGAN LAKESH 0200   29 34  310/  5/  6 1026.2F
PORT WASHINGTON  0100   31      10/  2/  4 1026.4
MILWAUKEE LAKESH 0200   29     280/  2/  2   N/A
KENOSHA   LAKESH 0200   28     300/  5/  7 1025.4S
$$

TC  - TEMPERATURE IN CELSIUS
VSB - VISIBILITY IN STATUTE MILES
WCI - WIND CHILL INDEX
HX  - HEAT INDEX



USA.gov is the U.S. government's official web portal to all federal, state and local government web resources and services.